EW5586 Weather Reports


time (UTC)temp
F
wind
direction
speed
knots
gust
knots
rain 1hr
in
rain 24hr
in
rain mn
in
humidity
%
barometer
mb
20260509015531 46 217 4.3 7.0 0.00 0.00 0.00 79 1010.7
20260509014521 47 192 5.2 7.0 0.00 0.00 0.00 78 1010.5
20260509014013 47 0 6.1 9.6 0.00 0.00 0.00 75 1010.5
20260509013508 47 213 5.2 8.7 0.00 0.00 0.00 72 1010.5
20260509013001 47 206 3.5 7.8 0.00 0.00 0.00 72 1010.3
20260509012455 47 212 3.5 5.2 0.00 0.00 0.00 74 1010.4
20260509011949 48 205 4.3 7.8 0.00 0.00 0.00 75 1010.3
20260509011443 48 195 5.2 8.7 0.00 0.00 0.00 65 1010.2
20260509010937 48 176 5.2 8.7 0.00 0.00 0.00 61 1010.2
20260509010431 48 209 5.2 8.7 0.00 0.00 0.00 60 1010.2
20260509005925 48 221 5.2 8.7 0.00 0.00 0.00 58 1010.0
20260509005419 48 204 5.2 9.6 0.00 0.00 0.00 58 1010.0
20260509004913 49 228 5.2 9.6 0.00 0.00 0.00 57 1010.0
20260509004407 49 229 5.2 9.6 0.00 0.00 0.00 56 1009.9
20260509003901 49 237 6.1 9.6 0.00 0.00 0.00 55 1009.9
20260509002849 49 0 5.2 9.6 0.00 0.00 0.00 53 1009.8
20260509002344 49 196 5.2 9.6 0.00 0.00 0.00 53 1009.9
20260509001836 49 0 5.2 12.2 0.00 0.00 0.00 51 1009.8
20260509001331 49 214 5.2 12.2 0.00 0.00 0.00 51 1009.8
20260509000826 49 217 5.2 9.6 0.00 0.00 0.00 52 1009.8
20260509000319 49 221 6.1 10.4 0.00 0.00 0.00 51 1009.7
20260508235813 49 237 6.1 10.4 0.00 0.00 0.00 51 1009.7
20260508235307 49 0 5.2 12.2 0.00 0.00 0.00 52 1009.5
20260508234801 49 248 4.3 12.2 0.00 0.00 0.00 53 1009.5
20260508234256 49 221 6.1 11.3 0.00 0.00 0.00 56 1009.5
20260508233749 49 242 8.7 13.9 0.00 0.00 0.00 57 1009.5
20260508233243 49 238 9.6 18.2 0.00 0.00 0.00 61 1009.5
20260508231725 49 196 10.4 16.5 0.00 0.00 0.00 56 1009.5
20260508231219 49 205 10.4 16.5 0.00 0.00 0.00 61 1009.7
20260508230719 49 210 9.6 13.0 0.00 0.00 0.00 68 1009.7
20260508230219 49 195 9.6 13.0 0.00 0.00 0.00 67 1009.7
20260508225219 49 197 9.6 13.9 0.00 0.00 0.00 65 1009.8
20260508224719 49 194 9.6 13.9 0.00 0.00 0.00 66 1009.7
20260508224219 49 217 9.6 14.8 0.00 0.00 0.00 66 1009.7
20260508223719 49 214 10.4 14.8 0.00 0.00 0.00 66 1009.9
20260508223219 49 217 10.4 13.9 0.00 0.00 0.00 66 1009.8
20260508222719 49 205 10.4 13.9 0.00 0.00 0.00 66 1009.7
20260508222220 49 0 10.4 13.9 0.00 0.00 0.00 65 1009.7
20260508221720 49 0 11.3 15.6 0.00 0.00 0.00 63 1009.5
20260508221219 50 215 11.3 15.6 0.00 0.00 0.00 59 1009.7
20260508220719 50 218 11.3 15.6 0.00 0.00 0.00 53 1009.5
20260508220222 50 198 11.3 18.2 0.00 0.00 0.00 60 1009.7
20260508215714 50 0 13.0 18.2 0.00 0.00 0.00 55 1009.7
20260508215210 50 221 13.0 18.2 0.00 0.00 0.00 50 1009.7
20260508214709 50 227 11.3 18.2 0.00 0.00 0.00 55 1009.8
20260508214210 50 215 10.4 16.5 0.00 0.00 0.00 61 1009.8
20260508213709 49 200 10.4 16.5 0.00 0.00 0.00 64 1009.8
20260508213209 49 196 10.4 15.6 0.00 0.00 0.00 60 1009.9
20260508212709 49 213 10.4 15.6 0.00 0.00 0.00 64 1009.8
20260508212210 49 217 10.4 15.6 0.00 0.00 0.00 65 1009.8
20260508210709 49 0 11.3 19.1 0.00 0.00 0.00 64 1009.8
20260508210210 50 188 13.0 20.0 0.00 0.00 0.00 55 1009.8
20260508205705 50 215 13.9 20.0 0.00 0.00 0.00 52 1009.8
20260508205205 50 200 11.3 17.4 0.00 0.00 0.00 57 1009.8
20260508204705 50 198 12.2 20.0 0.00 0.00 0.00 52 1009.9
20260508204206 49 204 13.0 20.0 0.00 0.00 0.00 59 1009.9
20260508203705 50 0 9.6 17.4 0.00 0.00 0.00 58 1010.0
20260508203205 51 204 9.6 20.9 0.00 0.00 0.00 51 1010.0
20260508202706 51 210 11.3 20.9 0.00 0.00 0.00 52 1009.9
20260508202207 51 0 9.6 20.0 0.00 0.00 0.00 59 1009.9
20260508201705 51 242 9.6 20.0 0.00 0.00 0.00 52 1009.9
20260508201201 51 185 12.2 20.9 0.00 0.00 0.00 59 1009.9
20260508200701 51 203 12.2 20.9 0.00 0.00 0.00 55 1010.0
20260508200201 51 188 12.2 20.0 0.00 0.00 0.00 59 1009.9
20260508195701 50 224 13.0 20.9 0.00 0.00 0.00 60 1009.9
20260508195202 50 205 13.9 20.9 0.00 0.00 0.00 63 1009.8
20260508193701 49 211 12.2 18.2 0.00 0.00 0.00 65 1009.9
20260508193201 49 217 12.2 16.5 0.00 0.00 0.00 67 1009.9
20260508192701 49 213 12.2 16.5 0.00 0.00 0.00 68 1009.9
20260508192201 49 204 13.0 19.1 0.00 0.00 0.00 66 1010.0
20260508191701 49 0 13.0 19.1 0.00 0.00 0.00 67 1010.0
20260508191201 49 202 13.0 17.4 0.00 0.00 0.00 66 1010.0
20260508190701 49 203 13.0 17.4 0.00 0.00 0.00 67 1010.0
20260508190202 49 205 12.2 16.5 0.00 0.00 0.00 67 1009.9
20260508185701 49 224 13.0 18.2 0.00 0.00 0.00 66 1010.0
20260508185200 49 196 13.9 18.2 0.00 0.00 0.00 67 1010.0
20260508184159 49 215 13.9 18.2 0.00 0.00 0.00 66 1010.0
20260508183659 49 220 13.9 18.2 0.00 0.00 0.00 67 1010.1
20260508183157 49 195 12.2 17.4 0.00 0.00 0.00 67 1010.1
20260508182654 48 196 12.2 18.2 0.00 0.00 0.00 69 1010.1
20260508182153 48 179 13.0 18.2 0.00 0.00 0.00 68 1010.1
20260508181651 48 219 12.2 18.2 0.00 0.00 0.00 67 1010.1
20260508181151 49 0 12.2 15.6 0.00 0.00 0.00 66 1010.1
20260508180649 49 0 11.3 14.8 0.00 0.00 0.00 65 1010.1
20260508180147 49 206 12.2 20.0 0.00 0.00 0.00 63 1010.1
20260508175646 49 197 13.0 20.0 0.00 0.00 0.00 59 1010.1
20260508175147 49 209 12.2 19.1 0.00 0.00 0.00 62 1010.1
20260508174646 48 219 12.2 18.2 0.00 0.00 0.00 66 1010.1
20260508174147 48 187 12.2 16.5 0.00 0.00 0.00 69 1010.1
20260508173645 48 210 13.0 20.9 0.00 0.00 0.00 68 1010.2
20260508172645 48 227 13.0 20.9 0.00 0.00 0.00 63 1010.1
20260508172143 48 211 11.3 20.9 0.00 0.00 0.00 66 1010.1
20260508171643 49 203 9.6 20.0 0.00 0.00 0.00 61 1010.1
20260508171143 49 204 10.4 18.2 0.00 0.00 0.00 62 1010.1
20260508170643 49 205 9.6 13.9 0.00 0.00 0.00 66 1010.0
20260508170143 49 0 8.7 13.9 0.00 0.00 0.00 65 1010.0
20260508165644 49 215 7.8 13.9 0.00 0.00 0.00 63 1010.1
20260508165143 49 186 7.0 11.3 0.00 0.00 0.00 62 1010.1
20260508164643 49 169 7.0 9.6 0.00 0.00 0.00 58 1010.1
20260508163643 49 169 7.8 11.3 0.00 0.00 0.00 59 1010.2
20260508163142 49 182 7.8 12.2 0.00 0.00 0.00 60 1010.2
20260508162643 49 192 7.0 12.2 0.00 0.00 0.00 63 1010.2
20260508162145 49 184 7.0 13.0 0.00 0.00 0.00 59 1010.2
20260508161644 50 210 7.0 13.0 0.00 0.00 0.00 57 1010.3
20260508161143 51 182 4.3 7.8 0.00 0.00 0.00 56 1010.2
20260508160143 51 0 4.3 12.2 0.00 0.00 0.00 48 1010.2
20260508155642 50 207 6.1 12.2 0.00 0.00 0.00 49 1010.2
20260508155145 51 240 3.5 12.2 0.00 0.00 0.00 53 1010.3
20260508154642 51 165 1.7 9.6 0.00 0.00 0.00 49 1010.3
20260508154136 51 226 0.0 9.6 0.00 0.00 0.00 51 1010.2
20260508153630 0 0.0 0.0 0.00 0.00 0.00 1010.3
20260508153044 0 0.0 0.0 0.00 0.00 0.00 1010.3
20260508152545 0 0.0 0.0 0.00 0.00 0.00 1010.4
20260508152038 0 0.0 0.0 0.00 0.00 0.00 1010.5
20260508151448 0 0.0 0.0 0.00 0.00 0.00 1010.5
20260508144843 0 0.0 0.0 0.00 0.00 0.00 1010.6
20260508143745 0 0.0 0.0 0.00 0.00 0.00 1010.5
20260508143243 0 0.0 0.0 0.00 0.00 0.00 1010.5
20260508142739 0 0.0 0.0 0.00 0.00 0.00 1010.5
20260508141642 0 0.0 0.0 0.00 0.00 0.00 1010.5
20260508141141 0 0.0 0.0 0.00 0.00 0.00 1010.5
20260508140544 0 0.0 0.0 0.00 0.00 0.00 1010.5
20260508135540 0 0.0 0.0 0.00 0.00 0.00 1010.5
20260508133433 0 0.0 0.0 0.00 0.00 0.00 1010.7
20260508132841 0 0.0 0.0 0.00 0.00 0.00 1010.6
20260508132247 0 0.0 0.0 0.00 0.00 0.00 1010.7
20260508130647 0 0.0 0.0 0.00 0.00 0.00 1010.6
20260508130141 0 0.0 0.0 0.00 0.00 0.00 1010.6
20260508125546 0 0.0 0.0 0.00 0.00 0.00 1010.6
20260508124530 0 0.0 0.0 0.00 0.00 0.00 1010.7
20260508123944 0 0.0 0.0 0.00 0.00 0.00 1010.7
20260508122943 0 0.0 0.0 0.00 0.00 0.00 1010.6
20260508122348 0 0.0 0.0 0.00 0.00 0.00 1010.6
20260508121338 0 0.0 0.0 0.00 0.00 0.00 1010.6
20260508120744 0 0.0 0.0 0.00 0.00 0.00 1010.6
20260508120242 0 0.0 0.0 0.00 0.00 0.00 1010.6
20260508115742 0 0.0 0.0 0.00 0.00 0.00 1010.5
20260508115243 0 0.0 0.0 0.00 0.00 0.00 1010.5
20260508114649 0 0.0 0.0 0.00 0.00 0.00 1010.5
20260508114142 0 0.0 0.0 0.00 0.00 0.00 1010.6
20260508113550 0 0.0 0.0 0.00 0.00 0.00 1010.5
20260508113045 0 0.0 0.0 0.00 0.00 0.00 1010.4
20260508112543 0 0.0 0.0 0.00 0.00 0.00 1010.2
20260508112036 0 0.0 0.0 0.00 0.00 0.00 1010.4
20260508110944 0 0.0 0.0 0.00 0.00 0.00 1010.5
20260508110442 0 0.0 0.0 0.00 0.00 0.00 1010.5
20260508105848 0 0.0 0.0 0.00 0.00 0.00 1010.4
20260508105344 0 0.0 0.0 0.00 0.00 0.00 1010.4
20260508104838 0 0.0 0.0 0.00 0.00 0.00 1010.4
20260508103745 0 0.0 0.0 0.00 0.00 0.00 1010.2
20260508102743 0 0.0 0.0 0.00 0.00 0.00 1010.0
20260508102153 0 0.0 0.0 0.00 0.00 0.00 1010.0
20260508101647 0 0.0 0.0 0.00 0.00 0.00 1010.0
20260508101127 0 0.0 0.0 0.00 0.00 0.00 1010.0
20260508100038 0 0.0 0.0 0.00 0.00 0.00 1010.0
20260508095447 0 0.0 0.0 0.00 0.00 0.00 1009.9
20260508094945 0 0.0 0.0 0.00 0.00 0.00 1009.9
20260508094442 0 0.0 0.0 0.00 0.00 0.00 1009.9
20260508093938 0 0.0 0.0 0.00 0.00 0.00 1009.9
20260508093343 0 0.0 0.0 0.00 0.00 0.00 1009.8
20260508092840 0 0.0 0.0 0.00 0.00 0.00 1009.9
20260508092332 0 0.0 0.0 0.00 0.00 0.00 1009.9
20260508091738 0 0.0 0.0 0.00 0.00 0.00 1009.9
20260508090641 0 0.0 0.0 0.00 0.00 0.00 1009.9
20260508090047 40 0.0 0.0 0.00 0.00 0.00 73 1010.0
20260508085545 40 321 0.0 1.7 0.00 0.00 0.00 73 1009.9
20260508084953 40 321 0.0 1.7 0.00 0.00 0.00 73 1009.8
20260508084451 40 321 0.0 1.7 0.00 0.00 0.00 73 1009.9
20260508083451 40 278 0.0 1.7 0.00 0.00 0.00 73 1009.9
20260508082449 40 315 0.0 2.6 0.00 0.00 0.00 73 1009.9
20260508081946 40 290 0.0 1.7 0.00 0.00 0.00 73 1009.9
20260508081446 40 350 0.0 1.7 0.00 0.00 0.00 74 1009.8
20260508080946 40 339 0.0 3.5 0.00 0.00 0.00 74 1009.8
20260508080446 39 342 0.9 3.5 0.00 0.00 0.00 74 1009.7
20260508075946 39 316 0.0 2.6 0.00 0.00 0.00 74 1009.7
20260508075446 39 321 0.0 2.6 0.00 0.00 0.00 74 1009.5
20260508073944 39 328 0.0 2.6 0.00 0.00 0.00 74 1009.5
20260508073445 39 344 0.0 2.6 0.00 0.00 0.00 74 1009.4
20260508072945 38 310 0.0 2.6 0.00 0.00 0.00 74 1009.4
20260508072445 38 329 0.0 2.6 0.00 0.00 0.00 74 1009.4
20260508071444 38 338 0.0 1.7 0.00 0.00 0.00 74 1009.3
20260508070940 38 331 0.0 1.7 0.00 0.00 0.00 73 1009.3
20260508065940 39 337 0.9 2.6 0.00 0.00 0.00 72 1009.2
20260508065440 39 327 0.9 2.6 0.00 0.00 0.00 72 1009.2
20260508064940 39 320 0.0 2.6 0.00 0.00 0.00 72 1009.3
20260508064443 39 315 0.0 2.6 0.00 0.00 0.00 72 1009.2
20260508063440 39 329 0.0 2.6 0.00 0.00 0.00 72 1009.2
20260508062943 39 315 0.0 2.6 0.00 0.00 0.00 71 1009.2
20260508062436 39 315 0.0 1.7 0.00 0.00 0.00 71 1009.1
20260508061936 40 316 0.0 1.7 0.00 0.00 0.00 71 1009.1
20260508061436 40 316 0.0 0.9 0.00 0.00 0.00 70 1009.1
20260508060937 40 315 0.0 0.9 0.00 0.00 0.00 70 1009.1
20260508055936 40 315 0.0 0.9 0.00 0.00 0.00 70 1009.0
20260508055436 40 315 0.0 0.0 0.00 0.00 0.00 70 1009.0
20260508054936 40 315 0.0 0.0 0.00 0.00 0.00 70 1009.0
20260508053437 40 315 0.0 2.6 0.00 0.00 0.00 71 1008.9
20260508052936 40 321 0.0 2.6 0.00 0.00 0.00 71 1008.9
20260508052437 40 330 0.0 0.9 0.00 0.00 0.00 72 1009.0
20260508051936 40 330 0.0 0.9 0.00 0.00 0.00 72 1009.0
20260508051436 40 330 0.0 0.0 0.00 0.00 0.00 73 1009.0
20260508050936 40 330 0.0 0.9 0.00 0.00 0.00 73 1009.0
20260508050436 40 330 0.0 0.9 0.00 0.00 0.00 73 1009.0
20260508045934 40 330 0.0 0.9 0.00 0.00 0.00 73 1009.1
20260508045427 40 330 0.0 0.9 0.00 0.00 0.00 74 1009.2
20260508044924 40 330 0.0 1.7 0.00 0.00 0.00 74 1009.1
20260508043920 40 257 0.0 1.7 0.00 0.00 0.00 75 1009.2
20260508043420 40 300 0.0 0.9 0.00 0.00 0.00 76 1009.1
20260508042920 41 300 0.0 0.9 0.00 0.00 0.00 76 1009.1
20260508042420 41 300 0.0 0.9 0.00 0.00 0.00 76 1009.1
20260508041918 41 300 0.0 0.0 0.00 0.00 0.00 76 1009.1
20260508041415 41 298 0.0 0.9 0.00 0.00 0.00 76 1009.1
20260508040914 41 294 0.0 0.9 0.00 0.00 0.00 76 1009.1
20260508035412 42 262 0.0 0.9 0.00 0.00 0.00 76 1008.9
20260508034911 42 262 0.0 0.0 0.00 0.00 0.00 76 1008.9
20260508034411 42 238 0.0 0.0 0.00 0.00 0.00 76 1009.0
20260508033910 42 281 0.0 0.0 0.00 0.00 0.00 76 1009.0
20260508033408 42 292 0.0 1.7 0.00 0.00 0.00 75 1009.0
20260508032901 42 286 0.0 2.6 0.00 0.00 0.00 75 1008.9
20260508032355 43 300 0.0 2.6 0.00 0.00 0.00 75 1008.9
20260508031343 43 248 0.0 1.7 0.00 0.00 0.00 74 1008.9
20260508030837 43 240 0.0 2.6 0.00 0.00 0.00 74 1008.8
20260508030332 43 240 0.0 2.6 0.00 0.00 0.00 74 1008.8
20260508025320 44 196 0.0 3.5 0.00 0.00 0.00 73 1008.7
20260508024813 44 311 0.9 3.5 0.00 0.00 0.00 73 1008.8
20260508024307 44 247 0.0 2.6 0.00 0.00 0.00 73 1008.8
20260508023801 44 229 0.0 1.7 0.00 0.00 0.00 73 1008.8
20260508023258 44 231 0.0 5.2 0.00 0.00 0.00 72 1008.8
20260508022757 45 232 0.9 5.2 0.00 0.00 0.00 72 1008.8
20260508022257 45 239 0.9 3.5 0.00 0.00 0.00 72 1008.8
20260508021254 45 205 1.7 6.1 0.00 0.00 0.00 71 1008.8
20260508020254 45 228 1.7 7.8 0.00 0.00 0.00 71 1008.8
20260508015752 46 225 2.6 7.8 0.00 0.00 0.00 71 1008.8